Location: Passo di Treia
(43.2833°N, 13.3333°E)
Time: 18:47:57
(UTC+00:00)

Okean-O - Pass Details

Date: 09 December 2019
Orbit: 639 x 641 km, 98.2° (Epoch: 26 January)

Event Time Altitude Azimuth Distance (km) Brightness Sun altitude
Rises 16:45:15 0° 160° (SSE) 2,932 6.0 -13.1°
Reaches altitude 10° 16:47:26 10° 159° (SSE) 2,027 5.2 -13.4°
Maximum altitude 16:51:51 74° 75° (ENE) 670 2.5 -14.2°
Drops below altitude 10° 16:56:17 10° 350° (N) 2,043 5.1 -15.0°
Sets 16:58:30 0° 349° (N) 2,957 6.0 -15.3°
